User: anonymous   Login
Location: Unspecified
(0.0000°N, 0.0000°E)
Time: 21:56:35
(UTC+00:00)
Language:

deb Delta 104 - Orbit

View from above orbital plane
View from above orbital plane
View from above satellite
View from above satellite

Ground track
Ground track

The orbit data is extracted from the following two-line orbital elements,

1 14475U 74089ER  24057.48139185  .00000531  00000-0  32294-2 0  9997
2 14475 101.0231 247.8679 0128024  79.6366 310.2411 12.59156212877422
Epoch (UTC): 26 February 2024 11:33:12
Eccentricity: 0.0128024
inclination: 101.0231°
perigee height: 1326 km
apogee height: 1526 km
right ascension of ascending node: 247.8679°
argument of perigee: 79.6366°
revolutions per day: 12.59156212
mean anomaly at epoch: 310.2411°
orbit number at epoch: 87742

The dashed part of the orbit path shows where the satellite is in the earth's shadow,  

DLR